This is the latest recevied weather packets stored in our database for station/object IU5JAE-13. If no packets are shown the sender has not sent any weather packets the latest 10 day(s).
| Time | Temp. | Humidity | Pressure | Rain* | Wind** | Luminosity | Snow |
|---|---|---|---|---|---|---|---|
| 1787906422 | 28.89° C | 73% | 1018.4 hPa | 0 mm | - | 230 W/m² | - |
| 1787905820 | 28.89° C | 74% | 1018.5 hPa | 0 mm | - | 341 W/m² | - |
| 1787905218 | 28.89° C | 75% | 1018.6 hPa | 0 mm | - | 304 W/m² | - |
| 1787904635 | 28.33° C | 77% | 1018.6 hPa | 0 mm | - | 295 W/m² | - |
| 1787904033 | 27.78° C | 76% | 1018.8 hPa | 0 mm | - | 278 W/m² | - |
| 1787903430 | 27.22° C | 77% | 1018.7 hPa | 0 mm | - | 264 W/m² | - |
| 1787902828 | 25.56° C | 85% | 1018.9 hPa | 0 mm | - | 246 W/m² | - |
| 1787902225 | 24.44° C | 86% | 1019.3 hPa | 0 mm | - | 218 W/m² | - |
| 1787901623 | 26.11° C | 81% | 1019.2 hPa | 0 mm | - | 228 W/m² | - |
| 1787901021 | 26.11° C | 83% | 1019.2 hPa | 0 mm | - | 148 W/m² | - |
| 1787900418 | 25.56° C | 84% | 1019 hPa | 0 mm | - | 134 W/m² | - |
| 1787899816 | 25° C | 87% | 1018.9 hPa | 0 mm | - | 165 W/m² | - |
| 1787899234 | 24.44° C | 88% | 1019.3 hPa | 0 mm | - | 94 W/m² | - |
| 1787898631 | 23.89° C | 87% | 1019.8 hPa | 0 mm | - | 76 W/m² | - |
| 1787898029 | 23.89° C | 91% | 1019.9 hPa | 0 mm | - | 88 W/m² | - |
| 1787897426 | 23.33° C | 90% | 1019.8 hPa | 0 mm | - | 67 W/m² | - |
| 1787896824 | 23.89° C | 89% | 1019.6 hPa | 0 mm | - | 67 W/m² | - |
| 1787896222 | 23.33° C | 89% | 1019.6 hPa | 0 mm | - | 62 W/m² | - |
| 1787895619 | 23.33° C | 92% | 1019.3 hPa | 0.51 mm | - | 40 W/m² | - |
| 1787895017 | 22.78° C | 92% | 1019.2 hPa | 0.51 mm | - | 36 W/m² | - |
| 1787894434 | 22.78° C | 92% | 1019.2 hPa | 0.51 mm | - | 36 W/m² | - |
| 1787893832 | 22.78° C | 91% | 1019.3 hPa | 0.51 mm | - | 16 W/m² | - |
| 1787893230 | 22.22° C | 92% | 1019.8 hPa | 0.51 mm | - | 9 W/m² | - |
| 1787892627 | 22.22° C | 91% | 1019.8 hPa | 0.51 mm | - | 4 W/m² | - |
| 1787892025 | 22.78° C | 87% | 1019.5 hPa | 0 mm | - | 1 W/m² | - |
* Rain latest hour (hover to see other rain measurements)
** Current wind speed in m/s (hover to see current wind gust speed)